• In Deutschland
  • Länderverzeichnis
  • Für 7 Tage
  • Wassertemperatur
  • Satellitenkarten
  • Wetterkarte
  • Widgets
  • user-avatar
    Anmelden

    Stündliche Wetter Sumgayit

    Heute, 27 März, Montag

    Zeit Temperatur Niederschläge Wind Luftdruck Luftfeuchtigkeit
    00:00 +7°C° 0 mm 5 m/S 738 mmHg 81%
    01:00 +7°C° 0 mm 5 m/S 738 mmHg 78%
    02:00 +7°C° 0 mm 5 m/S 737 mmHg 75%
    03:00 +7°C° 0 mm 5 m/S 737 mmHg 76%
    04:00 +7°C° 0 mm 5 m/S 737 mmHg 75%
    05:00 +7°C° 0 mm 4 m/S 737 mmHg 74%
    06:00 +7°C° 0 mm 4 m/S 737 mmHg 73%
    07:00 +9°C° 0 mm 5 m/S 737 mmHg 64%
    08:00 +11°C° 0 mm 6 m/S 737 mmHg 54%
    09:00 +15°C° 0 mm 7 m/S 737 mmHg 45%
    10:00 +16°C° 0 mm 8 m/S 737 mmHg 40%
    11:00 +18°C° 0 mm 9 m/S 737 mmHg 36%
    12:00 +21°C° 0 mm 10 m/S 736 mmHg 31%
    13:00 +21°C° 0 mm 10 m/S 736 mmHg 30%
    14:00 +21°C° 0 mm 10 m/S 735 mmHg 30%
    15:00 +21°C° 0 mm 9 m/S 735 mmHg 29%
    16:00 +18°C° 0 mm 8 m/S 735 mmHg 36%
    17:00 +16°C° 0 mm 6 m/S 735 mmHg 42%
    18:00 +14°C° 0 mm 4 m/S 735 mmHg 48%
    19:00 +13°C° 0 mm 4 m/S 735 mmHg 52%
    20:00 +12°C° 0 mm 4 m/S 735 mmHg 57%
    21:00 +11°C° 0 mm 3 m/S 736 mmHg 61%
    22:00 +10°C° 0 mm 4 m/S 736 mmHg 63%
    23:00 +10°C° 0 mm 4 m/S 736 mmHg 66%

    Morgen, 28 März, Dienstag

    Zeit Temperatur Niederschläge Wind Luftdruck Luftfeuchtigkeit
    00:00 +8°C° 0 mm 4 m/S 735 mmHg 68%
    01:00 +8°C° 0 mm 4 m/S 735 mmHg 69%
    02:00 +7°C° 0 mm 4 m/S 735 mmHg 71%
    03:00 +7°C° 0 mm 4 m/S 736 mmHg 72%
    04:00 +7°C° 0 mm 5 m/S 736 mmHg 74%
    05:00 +5°C° 0 mm 6 m/S 737 mmHg 77%
    06:00 +5°C° 0 mm 7 m/S 737 mmHg 80%
    07:00 +6°C° 0 mm 8 m/S 738 mmHg 76%
    08:00 +7°C° 0 mm 8 m/S 739 mmHg 72%
    09:00 +8°C° 0 mm 9 m/S 740 mmHg 69%
    10:00 +8°C° 0 mm 9 m/S 741 mmHg 65%
    11:00 +9°C° 0 mm 8 m/S 741 mmHg 61%
    12:00 +10°C° 0 mm 8 m/S 742 mmHg 57%
    13:00 +10°C° 0 mm 7 m/S 742 mmHg 57%
    14:00 +9°C° 0 mm 6 m/S 741 mmHg 56%
    15:00 +9°C° 0 mm 5 m/S 741 mmHg 55%
    16:00 +9°C° 0 mm 5 m/S 741 mmHg 57%
    17:00 +8°C° 0 mm 4 m/S 741 mmHg 59%
    18:00 +8°C° 0 mm 3 m/S 741 mmHg 61%
    19:00 +7°C° 0 mm 4 m/S 741 mmHg 65%
    20:00 +6°C° 0 mm 5 m/S 741 mmHg 68%
    21:00 +6°C° 0 mm 5 m/S 741 mmHg 71%
    22:00 +5°C° 0 mm 6 m/S 741 mmHg 72%
    23:00 +5°C° 0 mm 6 m/S 740 mmHg 73%

    übermorgen, 29 März, Mittwoch

    Zeit Temperatur Niederschläge Wind Luftdruck Luftfeuchtigkeit
    00:00 +4°C° 0 mm 7 m/S 740 mmHg 74%
    01:00 +4°C° 0 mm 7 m/S 739 mmHg 73%
    02:00 +4°C° 0 mm 7 m/S 739 mmHg 72%
    03:00 +4°C° 0 mm 8 m/S 738 mmHg 71%
    04:00 +4°C° 0 mm 7 m/S 738 mmHg 68%
    05:00 +4°C° 0 mm 7 m/S 738 mmHg 65%
    06:00 +4°C° 0 mm 6 m/S 738 mmHg 62%
    07:00 +7°C° 0 mm 6 m/S 739 mmHg 53%
    08:00 +9°C° 0 mm 6 m/S 740 mmHg 45%
    09:00 +12°C° 0 mm 5 m/S 740 mmHg 36%
    10:00 +13°C° 0 mm 5 m/S 740 mmHg 35%
    11:00 +14°C° 0 mm 5 m/S 741 mmHg 35%
    12:00 +15°C° 0 mm 5 m/S 741 mmHg 34%
    13:00 +15°C° 0 mm 5 m/S 741 mmHg 37%
    14:00 +14°C° 0 mm 5 m/S 741 mmHg 39%
    15:00 +14°C° 0 mm 5 m/S 741 mmHg 42%
    16:00 +12°C° 0 mm 5 m/S 742 mmHg 49%
    17:00 +10°C° 0 mm 5 m/S 743 mmHg 56%
    18:00 +8°C° 0 mm 5 m/S 743 mmHg 64%
    19:00 +8°C° 0 mm 4 m/S 744 mmHg 68%
    20:00 +7°C° 0 mm 4 m/S 745 mmHg 72%
    21:00 +7°C° 0 mm 3 m/S 746 mmHg 76%
    22:00 +7°C° 0 mm 3 m/S 746 mmHg 78%
    23:00 +7°C° 0 mm 2 m/S 747 mmHg 81%

    30 März, Donnerstag

    Zeit Temperatur Niederschläge Wind Luftdruck Luftfeuchtigkeit
    00:00 +6°C° 0 mm 2 m/S 747 mmHg 83%
    01:00 +7°C° 0 mm 1 m/S 747 mmHg 83%
    02:00 +7°C° 0 mm 1 m/S 747 mmHg 83%
    03:00 +6°C° 0 mm 1 m/S 747 mmHg 83%
    04:00 +6°C° 0 mm 1 m/S 747 mmHg 82%
    05:00 +6°C° 0 mm 1 m/S 748 mmHg 82%
    06:00 +6°C° 0 mm 1 m/S 748 mmHg 81%
    07:00 +7°C° 0 mm 2 m/S 748 mmHg 74%
    08:00 +7°C° 0 mm 4 m/S 748 mmHg 67%
    09:00 +9°C° 0 mm 5 m/S 748 mmHg 60%
    10:00 +9°C° 0 mm 5 m/S 747 mmHg 59%
    11:00 +10°C° 0 mm 6 m/S 747 mmHg 59%
    12:00 +10°C° 0 mm 6 m/S 746 mmHg 59%
    13:00 +10°C° 0 mm 7 m/S 745 mmHg 59%
    14:00 +10°C° 0 mm 7 m/S 744 mmHg 59%
    15:00 +11°C° 0 mm 7 m/S 743 mmHg 60%
    16:00 +10°C° 0 mm 7 m/S 743 mmHg 63%
    17:00 +9°C° 0 mm 7 m/S 743 mmHg 66%
    18:00 +8°C° 0 mm 7 m/S 742 mmHg 69%
    19:00 +8°C° 0 mm 6 m/S 742 mmHg 71%
    20:00 +8°C° 0 mm 6 m/S 742 mmHg 73%
    21:00 +7°C° 0 mm 6 m/S 742 mmHg 74%
    22:00 +7°C° 0 mm 6 m/S 741 mmHg 76%
    23:00 +7°C° 0 mm 5 m/S 741 mmHg 77%

    31 März, Freitag

    Zeit Temperatur Niederschläge Wind Luftdruck Luftfeuchtigkeit
    00:00 +6°C° 0 mm 5 m/S 740 mmHg 78%
    01:00 +6°C° 0 mm 4 m/S 740 mmHg 77%
    02:00 +6°C° 0 mm 4 m/S 740 mmHg 75%
    03:00 +7°C° 0 mm 3 m/S 739 mmHg 73%
    04:00 +7°C° 0 mm 3 m/S 740 mmHg 71%
    05:00 +7°C° 0 mm 3 m/S 740 mmHg 68%
    06:00 +7°C° 0 mm 3 m/S 740 mmHg 66%
    07:00 +9°C° 0 mm 3 m/S 740 mmHg 60%
    08:00 +11°C° 0 mm 4 m/S 741 mmHg 53%
    09:00 +13°C° 0 mm 5 m/S 741 mmHg 47%
    10:00 +13°C° 0 mm 5 m/S 741 mmHg 46%
    11:00 +14°C° 0 mm 6 m/S 742 mmHg 46%
    12:00 +14°C° 0 mm 7 m/S 742 mmHg 45%
    13:00 +13°C° 0 mm 8 m/S 742 mmHg 49%
    14:00 +13°C° 0 mm 9 m/S 742 mmHg 52%
    15:00 +12°C° 0 mm 10 m/S 742 mmHg 56%
    16:00 +11°C° 0 mm 11 m/S 743 mmHg 62%
    17:00 +8°C° 0 mm 11 m/S 744 mmHg 68%
    18:00 +7°C° 0 mm 12 m/S 745 mmHg 74%
    19:00 +5°C° 0 mm 12 m/S 745 mmHg 73%
    20:00 +4°C° 0 mm 12 m/S 746 mmHg 73%
    21:00 +4°C° 0 mm 12 m/S 747 mmHg 72%
    22:00 +3°C° 0,1 mm 12 m/S 747 mmHg 72%
    23:00 +3°C° 0,1 mm 12 m/S 747 mmHg 72%

    1 April, Samstag

    Zeit Temperatur Niederschläge Wind Luftdruck Luftfeuchtigkeit
    00:00 +3°C° 0,1 mm 12 m/S 748 mmHg 72%
    01:00 +2°C° 0,6 mm 11 m/S 748 mmHg 73%
    02:00 +2°C° 0,6 mm 10 m/S 748 mmHg 74%
    03:00 +1°C° 0,6 mm 10 m/S 749 mmHg 75%
    04:00 +1°C° 0,2 mm 9 m/S 749 mmHg 73%
    05:00 +1°C° 0,2 mm 9 m/S 749 mmHg 71%
    06:00 +1°C° 0,2 mm 8 m/S 749 mmHg 69%
    07:00 +1°C° 0 mm 8 m/S 749 mmHg 67%
    08:00 +2°C° 0 mm 7 m/S 749 mmHg 65%
    09:00 +3°C° 0 mm 7 m/S 749 mmHg 62%
    10:00 +3°C° 0,1 mm 6 m/S 749 mmHg 61%
    11:00 +3°C° 0,1 mm 6 m/S 749 mmHg 61%
    12:00 +4°C° 0,1 mm 6 m/S 749 mmHg 60%
    13:00 +4°C° 0,1 mm 6 m/S 748 mmHg 61%
    14:00 +4°C° 0,1 mm 6 m/S 748 mmHg 61%
    15:00 +4°C° 0,1 mm 6 m/S 747 mmHg 62%
    16:00 +3°C° 0 mm 5 m/S 747 mmHg 64%
    17:00 +3°C° 0 mm 5 m/S 747 mmHg 65%
    18:00 +2°C° 0 mm 5 m/S 747 mmHg 67%
    19:00 +3°C° 0 mm 4 m/S 747 mmHg 67%
    20:00 +3°C° 0 mm 4 m/S 747 mmHg 66%
    21:00 +3°C° 0 mm 4 m/S 747 mmHg 66%
    22:00 +3°C° 0,4 mm 4 m/S 747 mmHg 67%
    23:00 +3°C° 0,4 mm 4 m/S 746 mmHg 68%
    Mehr zeigen